TimeAKDT,TemperatureF,Dew PointF,Humidity,Sea Level PressureIn,VisibilityMPH,Wind Direction,Wind SpeedMPH,Gust SpeedMPH,PrecipitationIn,Events,Conditions,WindDirDegrees,DateUTC
12:16 AM,19.4,15.8,86,29.29,10.0,North,8.1,-,N/A,,Partly Cloudy,350,2012-10-13 08:16:00
12:36 AM,17.6,15.8,93,29.29,10.0,North,6.9,-,N/A,,Partly Cloudy,350,2012-10-13 08:36:00
12:56 AM,17.6,14.0,86,29.29,10.0,North,5.8,-,N/A,,Partly Cloudy,350,2012-10-13 08:56:00
1:16 AM,17.6,14.0,86,29.29,10.0,NNW,4.6,-,N/A,,Clear,340,2012-10-13 09:16:00
1:36 AM,17.6,14.0,86,29.29,10.0,WNW,4.6,-,N/A,,Partly Cloudy,290,2012-10-13 09:36:00
2:16 AM,17.6,14.0,86,29.28,10.0,NW,3.5,-,N/A,,Clear,310,2012-10-13 10:16:00
2:36 AM,15.8,12.2,86,29.28,10.0,NW,3.5,-,N/A,,Clear,310,2012-10-13 10:36:00
2:56 AM,15.8,12.2,86,29.28,10.0,West,5.8,-,N/A,,Clear,260,2012-10-13 10:56:00
3:16 AM,15.8,12.2,86,29.27,10.0,WNW,5.8,-,N/A,,Clear,300,2012-10-13 11:16:00
3:36 AM,15.8,12.2,86,29.28,10.0,NW,4.6,-,N/A,,Clear,320,2012-10-13 11:36:00
3:56 AM,14.0,10.4,86,29.27,10.0,West,3.5,-,N/A,,Clear,270,2012-10-13 11:56:00
4:16 AM,14.0,10.4,86,29.27,10.0,West,3.5,-,N/A,,Clear,280,2012-10-13 12:16:00
4:56 AM,12.2,8.6,85,29.28,10.0,SW,3.5,-,N/A,,Clear,230,2012-10-13 12:56:00
5:16 AM,12.2,8.6,85,29.27,10.0,Calm,Calm,-,N/A,,Scattered Clouds,0,2012-10-13 13:16:00
5:36 AM,10.4,8.6,92,29.27,10.0,Calm,Calm,-,N/A,,Mostly Cloudy,0,2012-10-13 13:36:00
5:56 AM,12.2,8.6,85,29.27,10.0,Calm,Calm,-,N/A,,Mostly Cloudy,0,2012-10-13 13:56:00
6:56 AM,8.6,6.8,92,29.28,10.0,Calm,Calm,-,N/A,,Scattered Clouds,0,2012-10-13 14:56:00
7:16 AM,8.6,6.8,92,29.28,10.0,Calm,Calm,-,N/A,,Partly Cloudy,0,2012-10-13 15:16:00
7:36 AM,8.6,6.8,92,29.28,10.0,Calm,Calm,-,N/A,,Mostly Cloudy,0,2012-10-13 15:36:00
7:56 AM,6.8,5.0,92,29.29,10.0,Calm,Calm,-,N/A,,Overcast,0,2012-10-13 15:56:00
8:16 AM,6.8,6.8,100,29.29,10.0,Calm,Calm,-,N/A,,Overcast,0,2012-10-13 16:16:00
8:36 AM,8.6,6.8,92,29.29,10.0,Calm,Calm,-,N/A,,Overcast,0,2012-10-13 16:36:00
8:56 AM,6.8,6.8,100,29.30,10.0,Calm,Calm,-,N/A,,Scattered Clouds,0,2012-10-13 16:56:00
9:16 AM,6.8,5.0,92,29.30,10.0,Calm,Calm,-,N/A,,Clear,0,2012-10-13 17:16:00
9:36 AM,8.6,6.8,92,29.30,10.0,Calm,Calm,-,N/A,,Clear,0,2012-10-13 17:36:00
9:56 AM,8.6,6.8,92,29.30,10.0,Calm,Calm,-,N/A,,Clear,0,2012-10-13 17:56:00
10:16 AM,10.4,8.6,92,29.30,10.0,Calm,Calm,-,N/A,,Clear,0,2012-10-13 18:16:00
10:36 AM,14.0,10.4,86,29.30,10.0,Calm,Calm,-,N/A,,Clear,0,2012-10-13 18:36:00
10:56 AM,17.6,10.4,73,29.29,10.0,Calm,Calm,-,N/A,,Clear,0,2012-10-13 18:56:00
11:16 AM,19.4,14.0,80,29.29,10.0,Calm,Calm,-,N/A,,Clear,0,2012-10-13 19:16:00
11:36 AM,21.2,14.0,74,29.29,10.0,Calm,Calm,-,N/A,,Clear,0,2012-10-13 19:36:00
11:56 AM,24.8,15.8,69,29.29,10.0,Calm,Calm,-,N/A,,Clear,0,2012-10-13 19:56:00
12:36 PM,24.8,15.8,69,29.28,10.0,North,6.9,-,N/A,,Clear,360,2012-10-13 20:36:00
12:56 PM,21.2,15.8,80,29.28,10.0,North,3.5,-,N/A,,Scattered Clouds,10,2012-10-13 20:56:00
1:16 PM,23.0,15.8,74,29.27,10.0,Calm,Calm,-,N/A,,Overcast,0,2012-10-13 21:16:00
1:36 PM,23.0,15.8,74,29.27,10.0,SE,4.6,-,N/A,,Overcast,130,2012-10-13 21:36:00
1:56 PM,24.8,15.8,69,29.27,10.0,Calm,Calm,-,N/A,,Mostly Cloudy,0,2012-10-13 21:56:00
2:16 PM,24.8,15.8,69,29.27,10.0,Calm,Calm,-,N/A,,Mostly Cloudy,0,2012-10-13 22:16:00
2:36 PM,24.8,15.8,69,29.27,10.0,Calm,Calm,-,N/A,,Overcast,0,2012-10-13 22:36:00
2:56 PM,24.8,15.8,69,29.26,10.0,Calm,Calm,-,N/A,,Overcast,0,2012-10-13 22:56:00
3:16 PM,24.8,15.8,69,29.26,10.0,ENE,4.6,-,N/A,,Overcast,60,2012-10-13 23:16:00
3:36 PM,24.8,15.8,69,29.26,10.0,NE,8.1,-,N/A,,Overcast,40,2012-10-13 23:36:00
3:56 PM,24.8,15.8,69,29.26,10.0,NE,5.8,-,N/A,,Overcast,50,2012-10-13 23:56:00
4:16 PM,24.8,17.6,74,29.26,10.0,NE,6.9,-,N/A,,Overcast,40,2012-10-14 00:16:00
4:36 PM,24.8,17.6,74,29.26,10.0,NE,5.8,-,N/A,,Overcast,40,2012-10-14 00:36:00
4:56 PM,24.8,17.6,74,29.26,10.0,NE,6.9,-,N/A,,Overcast,40,2012-10-14 00:56:00
5:56 PM,24.8,17.6,74,29.26,10.0,NNE,8.1,-,N/A,,Overcast,30,2012-10-14 01:56:00
6:16 PM,24.8,17.6,74,29.26,10.0,NE,5.8,-,N/A,,Overcast,40,2012-10-14 02:16:00
6:36 PM,24.8,17.6,74,29.26,10.0,NNE,8.1,-,N/A,,Overcast,20,2012-10-14 02:36:00
6:56 PM,24.8,19.4,80,29.26,10.0,NNE,8.1,-,N/A,,Overcast,20,2012-10-14 02:56:00
7:16 PM,24.8,19.4,80,29.26,10.0,NE,5.8,-,N/A,,Overcast,40,2012-10-14 03:16:00
8:16 PM,23.0,19.4,86,29.26,10.0,North,8.1,-,N/A,,Mostly Cloudy,10,2012-10-14 04:16:00
8:36 PM,21.2,19.4,93,29.26,10.0,NNE,8.1,-,N/A,,Mostly Cloudy,20,2012-10-14 04:36:00
9:16 PM,21.2,19.4,93,29.27,10.0,North,6.9,-,N/A,,Overcast,10,2012-10-14 05:16:00
9:36 PM,21.2,19.4,93,29.27,10.0,North,6.9,-,N/A,,Overcast,360,2012-10-14 05:36:00
9:56 PM,21.2,19.4,93,29.27,10.0,North,4.6,-,N/A,,Overcast,350,2012-10-14 05:56:00
10:16 PM,21.2,19.4,93,29.27,10.0,North,5.8,-,N/A,,Overcast,360,2012-10-14 06:16:00
10:36 PM,21.2,19.4,93,29.27,10.0,North,4.6,-,N/A,,Overcast,360,2012-10-14 06:36:00
10:56 PM,21.2,19.4,93,29.27,10.0,Calm,Calm,-,N/A,,Overcast,0,2012-10-14 06:56:00
11:16 PM,21.2,19.4,93,29.27,10.0,North,3.5,-,N/A,,Overcast,350,2012-10-14 07:16:00
11:36 PM,21.2,19.4,93,29.27,10.0,Calm,Calm,-,N/A,,Overcast,0,2012-10-14 07:36:00
11:56 PM,21.2,19.4,93,29.27,8.0,North,3.5,-,N/A,,Overcast,360,2012-10-14 07:56:00